www.pogodaiklimat.ru

Погода и климат >> Архив погоды >> Чили >> Пудауэль


ПОГОДА в Пудауэле

  • Прогноз погоды в Пудауэле
  • Монитор погоды в Пудауэле

АРХИВ ПОГОДЫ в Пудауэле

Время (UTC), дата Ветер
(напр.,м/с)
 
Видим.   Явления Облачность Т
(С)
Тd
(С)
f
(%)
Тe
(С)
Тes
(С)
Комфортность P
(гПа)
Po
(гПа)
Тmin
(С)
Tmax
(С)
R
(мм)
R24
(мм)
S
(см)
00 13.08 штиль 0 10 км ясно +10.6 -3.5 37 +11 +11 1022.6 966.2 +17.7
03 13.08 штиль 0 8000 м дым ясно +6.0 -1.6 58 +6 +6 1022.7 965.3
06 13.08 Ю 2 7000 м мгла ясно +3.3 -2.7 65 +1 +1 1022.2 964.3
09 13.08 СВ 3 7000 м мгла ясно +2.0 -3.5 67 -2 -2 1020.6 962.6
12 13.08 СВ 2 6000 м дым 3/0
[Ci fib]
+0.4 -3.7 74 -2 -2 1019.5 961.2 -1.0
15 13.08 0 10 км 8/0
[Ci fib]
+13.5 -2.4 33 1016.0 960.5
18 13.08 0 10 км 9/0
[Ac trans Cs]
+21.1 -3.3 19 1011.6 957.7
21 13.08 0 10 км 9/0
[Ci fib]
+24.7 -6.4 12 1009.5 956.4
00 14.08 0 10 км 8/0
[Ci fib]
+17.0 -3.1 25 1011.0 956.5 +25.2
03 14.08 штиль 0 8000 м мгла 4/0
[Ci fib]
+9.7 -0.8 48 +9 +9 1012.4 956.4
06 14.08 штиль 0 8000 м мгла 5/0
[Ci fib]
+7.1 -0.6 58 +7 +7 1012.3 955.8
09 14.08 СЗ 2 8000 м мгла 4/0
[Ci fib]
+5.2 -1.0 64 +4 +4 1012.6 955.7
12 14.08 СЗ 1 8000 м мгла 6/0
[Ci]
+3.7 -2.1 66 +3 +3 1014.2 956.9 +3.0
15 14.08 штиль 0 8000 м мгла 9/0
[Cs]
+18.7 -3.3 22 +19 +28 1013.2 958.8
18 14.08 Ю 5 10 км 10/0
[Cs]
+27.2 -3.4 13 +24 +28 комфорт 1010.0 957.2
21 14.08 Ю 6 10 км 10/0
[Cs]
+18.7 +7.6 48 +19 +19 1012.2 957.8
00 15.08 Ю 3 10 км 9/0
[Cs]
+12.5 +8.4 76 +11 +11 1016.6 960.9 +27.9
03 15.08 С 3 10 км 8/0
[Cs]
+10.5 +7.5 82 +8 +8 1016.9 960.7
06 15.08 0 8000 м дымка ясно +7.4 +6.3 93 1017.5 960.7
09 15.08 штиль 0 7000 м дымка 6/0
[Cs]
+6.4 +5.4 93 +5 +5 1017.8 960.8
12 15.08 Ю 3 400 м туман 10/10 90 м
[St]
+6.5 +6.4 99 +3 +3 1019.8 962.7 +4.4
15 15.08 Ю 4 2500 м дымка 10/10 90 м
[St]
+8.5 +8.1 97 +5 +5 1020.6 963.8
18 15.08 ЮВ 4 7000 м мгла 6/0
[Cs]
+14.1 +8.0 67 +13 +18 1016.9 961.4
21 15.08 Ю 6 10 км 9/0
[Cs]
+14.7 +7.8 63 +13 +14 1016.0 960.7
00 16.08 ЮВ 5 8000 м мгла 4/0
[Ci fib]
+11.0 +8.2 83 +8 +8 1018.3 962.2 +15.7
03 16.08 Ю 3 5000 м дымка ясно +7.5 +6.6 94 +5 +5 1019.3 962.4
06 16.08 0 5000 м дымка 10/10 210 м
[St]
+6.8 +6.1 95 1019.3 962.3
09 16.08 0 4000 м дымка 10/10 150 м
[Frnb]
+7.9 +7.0 94 1017.7 961.0
12 16.08 ЮВ 2 2000 м дымка 10/10 90 м
[St]
+7.8 +7.4 97 +6 +6 1018.1 961.4 +6.8
15 16.08 0 2500 м мгла 10/10 150 м
[St]
+8.6 +7.2 91 1018.6 962.0
18 16.08 Ю 4 8000 м мгла 8/8 750 м
[Cu med, cong]
+11.9 +6.0 67 +10 +12 1018.6 962.6
21 16.08 ЮЗ 6 8000 м мгла 1/1 750 м
[Cu hum]
+12.7 +6.3 65 +10 +11 1016.8 961.1
00 17.08 ЮВ 3 10 км 4/4 900 м
[Cu hum]
+9.2 +5.8 79 +7 +7 1021.4 964.8 +14.1
03 17.08 0 10 км 6/6 600 м
[Cu med, cong]
+7.7 +5.4 85 1022.2 965.2
06 17.08 штиль 0 7000 м дымка ясно +5.5 +4.3 92 +4 +4 1023.0 965.5
09 17.08 0 4500 м дымка ясно +3.8 +3.2 96 1022.7 964.9
12 17.08 С 2 200 м туман ясно +0.2 +0.2 100 -3 -3 1024.6 966.0 0.0
15 17.08 0 7000 м мгла {туман} 6/0
[Ci fib]
+10.8 +5.4 69 1022.8 966.4
18 17.08 0 10 км {туман} 9/0
[Ac As Cs]
+16.3 +1.7 37 1018.3 963.2
21 17.08 ЮЗ 5 10 км 9/0
[Ac und Cs]
+15.4 +3.3 44 +14 +15 1018.8 963.5
00 18.08 ЮВ 3 10 км 8/0
[Ac trans Ci fib]
+12.2 +6.3 67 +11 +11 1020.6 964.6 +16.9
03 18.08 штиль 0 10 км 6/0
[Ac trans]
+8.7 +4.5 75 +8 +8 1020.9 964.2
06 18.08 СЗ 2 10 км 6/0
[Ci]
+6.9 +5.5 91 +5 +5 1021.6 964.5
09 18.08 0 7000 м мгла 9/0
[Ac und]
+6.4 +4.2 86 1020.6 963.6
12 18.08 СВ 3 6000 м мгла 10/0
[Ac und]
+5.9 +3.7 86 +3 +3 1020.5 963.3 +5.5
15 18.08 Ю 2 8000 м мгла 10/0
[Ac und]
+9.5 +4.7 72 +8 +11 1021.0 964.4
18 18.08 ЮЗ 2 10 км 9/0
[Ac und]
+12.8 +6.2 64 +12 +16 1018.9 963.1
21 18.08 СЗ 2 10 км 10/0
[Ac und]
+12.6 +6.2 65 +12 +12 1018.3 962.5
00 19.08 ЮЗ 4 10 км 9/0
[Ac trans Ci]
+12.1 +5.5 64 +10 +10 1019.1 963.1 +13.5
03 19.08 Ю 4 10 км 10/0
[As op]
+10.4 +7.1 80 +8 +8 1021.3 964.9
06 19.08 0 8000 м дымка 9/0
[Ac trans Ci]
+7.1 +6.1 93 1022.4 965.3
09 19.08 СВ 3 6000 м мгла 9/0
[Ac trans]
+8.2 +5.2 81 +6 +6 1021.0 964.2
12 19.08 СВ 2 6000 м мгла 10/0
[Ac As]
+6.5 +4.5 87 +4 +5 1021.4 964.2 +6.0
15 19.08 СВ 2 5000 м мгла 10/0
[Ac As]
+9.2 +4.8 74 +8 +10 1020.9 964.3
18 19.08 0 6000 м мгла 10/0
[Ac As]
+12.0 +5.2 63 1019.4 963.4
21 19.08 0 6000 м мгла 10/0
[Ac As]
+12.8 +5.5 61 1019.1 963.3

 

Местоположение метеостанции Пудауэль (Чили): широта -33.38 долгота -70.78 высота над уровнем моря 474 м.

В архиве по умолчанию представлена погода в Пудауэле за последнюю неделю. Архивные данные за месяц целиком и за предыдущие месяцы, начиная с января 2011 года, Вы можете получить, выбрав интересующий диапазон дат из раскрывающегося списка и нажав кнопку "Ввод!".


*Определитесь, кто Вы:
робот инопланетянин человек

Внимание! Время в таблицах - всемирное. Для получения местного времени необходимо прибавить поправку, которая равна -4 ч.

Смотрите также архив погоды в соседних городах и на ближайших метеорологических станциях:

Погода в Сантьяго (Чили) (11 км)
Погода в Ло-Пинто (Чили) (13 км)
Погода в Ло-Прадо (Чили) (18 км)
Погода в Сантьяго Агуас Андинас (Чили) (29 км)
Погода в Талаганте (Чили) (33 км)
Погода в Куракави (Чили) (36 км)
Погода в Эль Пайко (Чили) (42 км)
Погода в Мария-Пинто (Чили) (45 км)
Погода в Сан-Хосе-де-Майпо (Чили) (48 км)
Погода в Льяй Льяй (Чили) (57 км)

Пояснения к столбцам:

Ветер - указаны скорость ветра в м/с - средняя за 10 мин, порывы в срок и между сроками (в фигурных скобках) и направление, откуда дует ветер: С - северный, СВ - северо-восточный, В - восточный, ЮВ - юго-восточный, Ю - южный, ЮЗ - юго-западный, З - западный, СЗ - северо-западный.
Видимость - горизонтальная дальность видимости в метрах или километрах. При видимости от 1 до 10 км при отсутствии осадков обычно наблюдается дымка, при ухудшении видимости до 1 км и менее - туман. В сухую погоду видимость может ухудшаться дымом, пылью или мглою.
Явления - указаны атмосферные явления, наблюдавшиеся в срок или в последний час перед сроком; фигурными скобками обозначены явления, наблюдавшиеся между сроками (за 1-3 часа до срока); квадратными скобками обозначены град или гололедные отложения с указанием их диаметра в мм.
Облачность - указаны через наклонную черту общая и нижняя облачность в баллах и высота нижней границы облаков в метрах; квадратными скобками обозначены формы облаков: Ci - перистые, Cs - перисто-слоистые, Cc - перисто-кучевые, Ac - высококучевые, As - высокослоистые, Sc - слоисто-кучевые, Ns - слоисто-дождевые, Cu - кучевые, Cb - кучево-дождевые. Подробнее классификацию облаков см. в Атласе облаков (PDF).
T - Температура воздуха - температура, измеренная на высоте 2 м над землей.
Td - Температура точки росы - температура, при понижении до которой содержащийся в воздухе водяной пар достигнет насыщения.
f - Относительная влажность воздуха - влажноcть воздуха, измеренная на высоте 2 м над землей.
Te - Эффективная температура - температура, которую ощущает одетый по сезону человек в тени. Характеристика душности погоды. При расчете учитывается влияние влажности воздуха и скорости ветра на теплоощущения человека.
Tes - Эффективная температура на солнце - температура, которую ощущает человек, с поправкой на солнечный нагрев. Характеристика знойности погоды. Зависит от высоты солнца над горизонтом, облачности и скорости ветра. Ночью, в пасмурную погоду, а также при ветре 12 м/с и более поправка равна нулю.
P - Атмосферное давление - приведенное к уровню моря атмосферное давление.
Po - Атмосферное давление - измеренное на уровне метеостанции атмосферное давление.
Tmin - Минимальная температура - минимум температуры воздуха на высоте 2 м над землей.
Tmax - Максимальная температура - максимум температуры воздуха на высоте 2 м над землей.
R - Количество осадков - Количество выпавших осадков за период времени, мм. При наведении курсора мыши на число - период времени, за который выпало указанное количество осадков.
R24 - Количество осадков - Количество выпавших осадков за 24 часа, мм.
S - Снежный покров - Высота снежного покрова, см. При наведении курсора мыши на число - состояние снежного покрова и степень покрытия местности в баллах.